Regional Weather Roundup
Issued by NWS

Home | Current Version | Previous Version | Graphics & Text | Print | Product List | Glossary On
Versions: 1 2 3 4 5 6 7 8 9 10 11 12 13 14 15 16 17 18 19 20 21 22 23 24 25 26 27 28 29 30 31 32 33 34 35 36 37 38 39 40 41 42 43 44 45 46 47 48 49 50
371
ASUS43 KMKX 030300
RWRWI

WISCONSIN REGIONAL WEATHER ROUNDUP
NATIONAL WEATHER SERVICE MILWAUKEE/SULLIVAN WI
1000 PM CDT MON MAY 02 2016

NOTE: "FAIR" INDICATES FEW OR NO CLOUDS BELOW 12,000 FEET WITH NO
SIGNIFICANT WEATHER AND/OR OBSTRUCTIONS TO VISIBILITY.

WIZ001-002-006>008-014>016-023>028-030400-
NORTHWEST WISCONSIN

CITY           SKY/WX    TMP DP  RH WIND       PRES   REMARKS
SUPERIOR ARPT  CLEAR     38  34  84 CALM      29.99S
ASHLAND        CLEAR     40  39  97 CALM      29.99S
HAYWARD        CLEAR     46  36  68 N3        29.99R
SIREN          CLEAR     52  34  51 CALM      29.99R
CUMBERLAND     CLEAR     50  34  53 SW6       29.99S
RICE LAKE      CLEAR     55  33  44 SW3       30.00F
CHETEK         CLEAR     52  36  54 CALM      29.99S
LADYSMITH      CLEAR     49  38  67 CALM      30.00S
EAU CLAIRE     NOT AVBL
MENOMONIE      CLEAR     51  31  45 S5        30.00F
NEW RICHMOND   CLEAR     52  39  61 CALM      30.00F
OSCEOLA        CLEAR     50  37  60 CALM      30.02S
$$

WIZ003>005-009-010-017-018-030400-
NORTH CENTRAL WISCONSIN

CITY           SKY/WX    TMP DP  RH WIND       PRES   REMARKS
MANITOWISH WTR CLEAR     42  38  87 CALM      29.99S
ARBOR VITAE    CLEAR     48  35  61 CALM      30.00S
WOODRUFF       CLEAR     48  35  61 CALM      30.00S
RHINELANDER    CLEAR     43  30  60 CALM      29.99S
EAGLE RIVER    CLEAR     43  32  64 CALM      29.99S
LAND O LAKES   CLEAR     42  34  73 CALM      30.00S
PHILLIPS       MOCLDY    47  37  67 CALM      29.99S
TOMAHAWK       CLEAR     42  35  76 CALM      29.99F
MEDFORD        CLEAR     49  37  61 CALM      29.99F
MERRILL        CLEAR     46  36  68 CALM      30.00S
$$

WIZ029-030-035-036-043>047-030400-
CENTRAL WISCONSIN

CITY           SKY/WX    TMP DP  RH WIND       PRES   REMARKS
WAUSAU         PTCLDY    54  38  54 CALM      29.98S
MOSINEE        CLOUDY    54  34  47 SW5       30.01S
MARSHFIELD     MOCLDY    51  34  52 W5        29.99F
STEVENS POINT  PTCLDY    53  35  51 CALM      30.00F
WAUPACA        MOCLDY    52  35  53 S3        30.01R
WAUTOMA        CLOUDY    49  37  63 CALM      30.02R
WISC RAPIDS    MOCLDY    47  35  63 CALM      30.01F
CAMP DOUGLAS   NOT AVBL
$$

WIZ011>013-019>022-031-037>040-048>050-030400-
NORTHEAST WISCONSIN

CITY           SKY/WX    TMP DP  RH WIND       PRES   REMARKS
ANTIGO         CLEAR     48  35  61 CALM      29.99S
SHAWANO        PTCLDY    56  36  47 S5        29.99S
OCONTO         MOCLDY    46  38  76 CALM      29.99F
STURGEON BAY   CLEAR     46  32  57 S3        30.02S
GREEN BAY      CLEAR     52  37  56 SW5       30.00S
MANITOWOC      NOT AVBL
APPLETON       PTCLDY    52  32  46 S7        29.99S
CLINTONVILLE   MOCLDY    55  34  44 S7        29.99S
OSHKOSH        CLEAR     48  35  60 S5        30.00S
$$

WIZ032>034-041-042-053>061-030400-
SOUTHWEST WISCONSIN

CITY           SKY/WX    TMP DP  RH WIND       PRES   REMARKS
LA CROSSE      CLOUDY    57  42  57 SE3       30.02R
SPARTA         CLOUDY    51  41  69 CALM      30.03S
VIROQUA        CLOUDY    53  37  53 CALM      30.03S
BOSCOBEL       MOCLDY    51  41  68 CALM      30.03R
PRAIRIE DU CHI CLOUDY    51  43  75 CALM      30.03R
PLATTEVILLE    CLEAR     53  38  57 CALM      30.02S
$$

WIZ056-057-062-063-064-067-068-030400-
SOUTH CENTRAL WISCONSIN

CITY           SKY/WX    TMP DP  RH WIND       PRES   REMARKS
REEDSBURG      CLOUDY    54  37  52 CALM      30.01R
BARABOO/DELLS  CLOUDY    55  34  44 CALM      30.02R
LONE ROCK      NOT AVBL
MINERAL POINT  PTCLDY    55  32  41 SW3       30.02S
MADISON        CLEAR     48  36  63 CALM      30.01S
MIDDLETON      CLEAR     47  39  72 CALM      30.02S
WATERTOWN      CLEAR     47  37  67 SE5       30.02S
MONROE         CLEAR     52  36  54 SW3       30.02S
JANESVILLE     NOT AVBL
$$

WIZ051-052-058>065-066-070>072-030400-
SOUTHEAST WISCONSIN

CITY           SKY/WX    TMP DP  RH WIND       PRES   REMARKS
MILWAUKEE      CLEAR     45  33  63 CALM      30.02F
WAUKESHA       CLEAR     43  32  65 SE3       30.03S
MILWAUKEE/TIMM CLEAR     45  32  61 CALM      30.03S
RACINE         CLEAR     42  34  73 W3        30.03F
BURLINGTON     CLEAR     41  34  75 CALM      30.02F
KENOSHA        CLEAR     40  35  83 CALM      30.02F
FOND DU LAC    CLEAR     48  37  65 S5        30.01S
SHEBOYGAN      CLEAR     42  35  76 CALM      30.01S
WEST BEND      CLEAR     46  32  57 SW5       30.02S
JUNEAU         CLEAR     50  36  58 S3        30.03S
$$

LSZ147-162-030400-
LAKE SUPERIOR

STATION/POSITION TIME  TEMP    WIND        PRES    WAVE
                       AIR SEA DIR/SP/G            HT/PER
                 (UTC) (F)     (DEG/KT/KT) (MB)    (FT/S)
W MID LAKE BUOY  0150   38 37  250/  2/  4 1016.4R   0
DEVILS ISLAND    0200   49     130/  4/  5 1015.6F
SAXON HARBOR     0200   45     190/  2/  3 1014.9F
$$

LMZ867-665-643>646-030400-
LAKE MICHIGAN

STATION/POSITION TIME  TEMP    WIND        PRES    WAVE
                       AIR SEA DIR/SP/G            HT/PER
                 (UTC) (F)     (DEG/KT/KT) (MB)    (FT/S)
CHAMBERS ISLAND  0200   49     160/  2/  3 1015.9
N MID LAKE BUOY  0150   42 39  260/  4/  6 1016.1R   0
NORTHPORT PIER   0200   49     200/  2/  4 1015.9S
ALGOMA LAKESHORE 0200             CALM       N/A
KEWAUNEE LAKESHO 0200   50                 1015.4S
SHEBOYGAN LAKESH 0200   50     210/  2/  2 1016.9F
PORT WASHINGTON  0240   48      CALM  /  2 1017.3S
S MID LAKE BUOY  0150   42 41  310/  6/  8 1016.3F   1/ 4
KENOSHA   LAKESH 0200   48     330/  2/  3 1016.9S
$$

TC  - TEMPERATURE IN CELSIUS
VSB - VISIBILITY IN STATUTE MILES
WCI - WIND CHILL INDEX
HX  - HEAT INDEX





USA.gov is the U.S. government's official web portal to all federal, state and local government web resources and services.